Погода в Кефлавике

Исландия     63°59′57″N   22°33′43″W
темп.,
°C
ветер,
м/с
пор.,
м/с
влажн.,
%
обл.,
%
осадки,
мм/ч
давл.,
гПа
погр.,
м
27 ноября, сб
сб2700:00+3юз5660100 0.0 10231104
03:00+4ю7864100 0.0 10191014
06:00+3ююв81090100 0.2 1016637
09:000юв91295100 1.3 1014325
12:00+2юв5686100 1.5 1012139
15:00+3в0186100 0.0 1012119
18:00+4св228597 0.1 1012271
21:00+4в1284100 0.0 1013254
28 ноября, вс
вс2800:00+4в1179100 0.0 1012189
03:00+4юв2279100 0.0 1011150
06:00+4ююв5684100 0.0 1009255
09:00+2юв91295100 1.8 1008420
12:00+3юв121394100 2.7 1006416
15:00+7ююз6998100 1.0 1003307
18:00+7зюз71096100 5.6 1002442
21:00+7з6995100 2.1 1001344
29 ноября, пн
пн2900:00+7зсз8109037 2.2 1001477
03:00+5сз91088100 0.0 1003575
06:00+5ссз7882100 0.1 1005759
09:00+4ссв6676100 0.1 1006445
12:00+4всв2274100 0.1 1007359
15:00+3юв8993100 1.9 1004566
18:00+4юв111594100 5.9 1001622
21:00+6юв141494100 1.6 999650
30 ноября, вт
вт3000:00+7зюз111489100 2.4 999744
03:00+6зюз111376100 0.2 9981287
06:00+6зюз101275100 0.5 9961120
09:00+6з787599 0.6 994851
12:00+4зсз8870100 0.9 9951154
15:00+4сз8974100 0.2 9961174
18:00+3ссз15147998 0.4 10001102
21:00+2ссз15156999 0.1 10051414
1 декабря, ср
ср100:00+2ссз12126411 0.1 10081280
03:00+2ссз910635 0.0 10101049
06:00+2с78614 0.0 1012895
09:00+1ссв55665 0.0 1013620
12:00+1ссв44675 0.0 1015435
15:00+1св44699 0.0 1016464
18:00+1юв346497 0.0 1017325
21:00+1юв6761100 0.0 1016534